GW4813 Weather Reports


Display with metric or nautical units.
time (UTC)temp
F
wind
direction
speed
MPH
gust
MPH
rain 1hr
in
rain 24hr
in
rain mn
in
humidity
%
barometer
mb
20260504202006 70 247 16.0 22.0 0.00 0.01 0.00 54 1007.3
20260504201511 71 241 13.0 17.0 0.00 0.01 0.00 53 1007.2
20260504201006 70 202 9.0 16.0 0.00 0.01 0.00 57 1007.4
20260504200507 69 198 9.0 16.0 0.00 0.01 0.00 58 1007.3
20260504200004 69 243 9.0 17.0 0.00 0.01 0.00 58 1007.3
20260504195504 69 163 11.0 17.0 0.00 0.01 0.00 58 1007.5
20260504195004 69 207 10.0 21.0 0.00 0.01 0.00 58 1007.6
20260504194527 69 228 11.0 24.0 0.00 0.01 0.00 58 1007.8
20260504194005 69 275 13.0 24.0 0.00 0.01 0.00 57 1007.6
20260504193508 69 214 16.0 27.0 0.00 0.01 0.00 58 1007.7
20260504193010 70 218 13.0 27.0 0.00 0.01 0.00 58 1007.9
20260504192505 69 203 10.0 27.0 0.00 0.01 0.00 60 1008.1
20260504192009 69 235 13.0 27.0 0.00 0.01 0.00 59 1008.4
20260504191513 70 251 15.0 22.0 0.00 0.01 0.00 56 1008.4
20260504191007 71 227 12.0 25.0 0.00 0.01 0.00 55 1008.3
20260504190508 70 238 12.0 28.0 0.00 0.01 0.00 57 1008.2
20260504190014 70 214 15.0 28.0 0.00 0.01 0.00 55 1008.3
20260504185507 70 234 13.0 23.0 0.00 0.01 0.00 56 1008.4
20260504185004 70 224 13.0 23.0 0.00 0.01 0.00 54 1008.0
20260504184515 70 281 9.0 21.0 0.00 0.01 0.00 55 1008.0
20260504184002 70 255 15.0 21.0 0.00 0.01 0.00 55 1008.2
20260504183502 70 264 14.0 19.0 0.00 0.01 0.00 54 1008.1
20260504183008 71 209 11.0 19.0 0.00 0.01 0.00 54 1008.0
20260504182503 71 155 14.0 20.0 0.00 0.01 0.00 54 1008.0
20260504182008 71 210 12.0 20.0 0.00 0.01 0.00 53 1007.8
20260504181513 72 222 12.0 20.0 0.00 0.01 0.00 53 1007.7
20260504181008 72 224 9.0 24.0 0.00 0.01 0.00 53 1007.8
20260504180506 71 225 14.0 24.0 0.00 0.01 0.00 52 1007.8
20260504180018 71 239 16.0 24.0 0.00 0.01 0.00 52 1007.8
20260504175508 71 222 14.0 25.0 0.00 0.01 0.00 52 1007.7
20260504175012 72 224 15.0 25.0 0.00 0.01 0.00 51 1007.8
20260504174516 71 264 10.0 23.0 0.00 0.01 0.00 52 1007.6
20260504174010 71 241 15.0 23.0 0.00 0.01 0.00 51 1007.7
20260504173506 71 244 12.0 23.0 0.00 0.01 0.00 51 1007.7
20260504173018 72 251 12.0 21.0 0.00 0.01 0.00 51 1007.8
20260504172504 71 238 9.0 21.0 0.00 0.01 0.00 52 1007.7
20260504172008 72 212 11.0 21.0 0.00 0.01 0.00 51 1007.8
20260504171517 71 252 12.0 21.0 0.00 0.01 0.00 54 1007.9
20260504171010 71 220 10.0 18.0 0.00 0.01 0.00 53 1007.9
20260504170508 71 162 10.0 18.0 0.00 0.01 0.00 54 1007.9
20260504151010 64 198 10.0 19.0 0.00 0.01 0.00 61 1008.9
20260504150504 64 226 8.0 15.0 0.00 0.01 0.00 62 1008.9
20260504141004 61 194 8.0 14.0 0.00 0.01 0.00 65 1009.2
20260504140504 60 152 9.0 14.0 0.00 0.01 0.00 64 1009.2
20260504130503 56 255 7.0 12.0 0.00 0.01 0.00 67 1009.6
20260504110507 50 194 9.0 13.0 0.00 0.01 0.00 69 1009.3
20260504100506 50 138 3.0 8.0 0.00 0.01 0.00 69 1009.8
20260504081527 50 186 6.0 9.0 0.00 0.01 0.00 67 1010.6
20260504081013 50 176 5.0 9.0 0.00 0.01 0.00 67 1010.7
20260504080509 50 172 5.0 10.0 0.00 0.01 0.00 67 1010.7
20260504050506 53 220 7.0 15.0 0.00 0.01 0.00 59 1012.1
20260504050006 54 155 7.0 15.0 0.00 0.01 0.00 59 1012.1
20260504045502 54 193 6.0 13.0 0.00 0.01 0.00 59 1012.1
20260504045002 53 175 7.0 13.0 0.00 0.01 0.00 59 1012.2
20260504044513 54 162 7.0 13.0 0.00 0.01 0.00 59 1012.2
20260504044004 54 207 8.0 13.0 0.00 0.01 0.00 59 1012.3
20260504043504 53 210 7.0 13.0 0.00 0.01 0.00 59 1012.3
20260504043012 53 181 7.0 12.0 0.00 0.01 0.00 60 1012.4
20260504042505 53 201 5.0 12.0 0.00 0.01 0.00 60 1012.4
20260504042008 53 188 5.0 12.0 0.00 0.01 0.00 61 1012.5
20260504041521 53 174 5.0 8.0 0.00 0.01 0.00 61 1012.5
20260504041007 53 224 3.0 7.0 0.00 0.01 0.00 62 1012.6
20260504040509 52 169 3.0 7.0 0.00 0.01 0.00 64 1012.7
20260504040026 52 136 4.0 7.0 0.00 0.01 0.00 64 1012.7
20260504035506 52 131 4.0 7.0 0.00 0.01 0.01 64 1012.7
20260504035007 52 131 4.0 7.0 0.00 0.01 0.01 65 1012.8
20260504034504 52 124 5.0 7.0 0.00 0.01 0.01 66 1012.8
20260504034001 52 137 4.0 7.0 0.00 0.01 0.01 65 1012.8
20260504033502 52 137 5.0 8.0 0.00 0.01 0.01 66 1012.9
20260504033012 52 149 5.0 8.0 0.00 0.01 0.01 66 1012.9
20260504032507 52 147 4.0 8.0 0.00 0.01 0.01 68 1013.0
20260504032004 52 103 3.0 8.0 0.00 0.01 0.01 68 1013.1
20260504031515 51 134 4.0 8.0 0.00 0.01 0.01 69 1013.1
20260504031008 51 145 4.0 8.0 0.00 0.01 0.01 70 1013.1
20260504030509 51 121 5.0 7.0 0.00 0.01 0.01 70 1013.2
20260504030019 51 138 4.0 7.0 0.00 0.01 0.01 71 1013.2
20260504025512 50 125 3.0 6.0 0.00 0.01 0.01 72 1013.2
20260504025008 50 120 3.0 7.0 0.00 0.01 0.01 74 1013.3
20260504024524 50 146 4.0 7.0 0.00 0.01 0.01 73 1013.4
20260504024009 50 103 3.0 6.0 0.00 0.01 0.01 74 1013.4
20260504023506 50 123 3.0 7.0 0.00 0.01 0.01 74 1013.4
20260504023008 50 112 4.0 8.0 0.00 0.01 0.01 74 1013.4
20260504022502 50 113 4.0 8.0 0.00 0.01 0.01 74 1013.4
20260504022004 50 139 5.0 8.0 0.00 0.01 0.01 74 1013.4
20260504021515 50 123 4.0 7.0 0.00 0.01 0.01 74 1013.4
20260504021007 50 113 4.0 7.0 0.00 0.01 0.01 75 1013.4
20260504020505 50 136 3.0 7.0 0.00 0.01 0.01 76 1013.5
20260504020019 50 117 3.0 8.0 0.00 0.01 0.01 75 1013.5
20260504015510 50 86 4.0 8.0 0.00 0.01 0.01 76 1013.5
20260504015009 50 126 4.0 8.0 0.00 0.01 0.01 76 1013.4
20260504014531 50 120 4.0 8.0 0.00 0.01 0.01 76 1013.4
20260504014009 49 118 5.0 8.0 0.00 0.01 0.01 76 1013.5
20260504013510 49 129 4.0 7.0 0.00 0.01 0.01 76 1013.5
20260504013026 49 114 3.0 5.0 0.00 0.01 0.01 77 1013.5
20260504012506 49 122 4.0 7.0 0.00 0.01 0.01 76 1013.5
20260504012007 49 118 3.0 7.0 0.00 0.01 0.01 76 1013.5
20260504011526 49 103 4.0 7.0 0.00 0.01 0.01 76 1013.5
20260504011002 49 136 3.0 7.0 0.00 0.01 0.01 77 1013.6
20260504010506 49 102 3.0 7.0 0.00 0.01 0.01 78 1013.6
20260504010012 49 118 2.0 6.0 0.00 0.01 0.01 79 1013.6
20260504005505 49 105 3.0 6.0 0.00 0.01 0.01 78 1013.6
20260504005011 49 110 3.0 6.0 0.00 0.01 0.01 78 1013.6
20260504004521 49 110 3.0 6.0 0.00 0.01 0.01 78 1013.5
20260504004010 49 101 3.0 5.0 0.00 0.01 0.01 79 1013.5
20260504003509 49 100 3.0 5.0 0.00 0.01 0.01 79 1013.5
20260504003030 49 116 1.0 3.0 0.00 0.01 0.01 78 1013.5
20260504002509 49 114 0.0 1.0 0.00 0.01 0.01 78 1013.6
20260504002011 49 110 0.0 3.0 0.00 0.01 0.01 78 1013.7
20260504001532 49 112 0.0 5.0 0.00 0.01 0.01 77 1013.6
20260504001007 49 116 2.0 5.0 0.00 0.01 0.01 77 1013.6
20260504000507 49 115 1.0 3.0 0.00 0.01 0.01 77 1013.6
20260504000028 49 124 0.0 4.0 0.00 0.01 0.01 77 1013.6
20260503235509 49 121 0.0 4.0 0.00 0.01 0.01 78 1013.5
20260503235008 49 101 2.0 5.0 0.00 0.01 0.01 78 1013.5
20260503234517 49 105 3.0 6.0 0.00 0.01 0.01 79 1013.4
20260503234007 49 98 2.0 6.0 0.00 0.01 0.01 78 1013.4
20260503233503 49 115 3.0 7.0 0.00 0.01 0.01 78 1013.4
20260503233004 49 104 4.0 7.0 0.00 0.01 0.01 78 1013.5
20260503232504 49 98 3.0 7.0 0.00 0.01 0.01 77 1013.7
20260503232003 49 142 3.0 6.0 0.00 0.01 0.01 78 1013.7
20260503231502 49 124 3.0 6.0 0.00 0.01 0.01 79 1013.8
20260503231004 49 84 3.0 6.0 0.00 0.01 0.01 80 1013.9
20260503230504 49 120 2.0 5.0 0.01 0.01 0.01 80 1013.9
20260503230008 49 127 3.0 5.0 0.01 0.01 0.01 80 1014.0
20260503225508 49 106 2.0 5.0 0.01 0.01 0.01 80 1014.3
20260503225009 49 102 2.0 5.0 0.01 0.01 0.01 79 1014.3
20260503224516 49 117 0.0 3.0 0.01 0.01 0.01 78 1014.4
20260503224004 49 55 0.0 3.0 0.01 0.01 0.01 78 1014.6
20260503223505 49 129 2.0 3.0 0.01 0.01 0.01 77 1014.8
20260503223018 49 80 0.0 3.0 0.01 0.01 0.01 78 1015.1
20260503222508 49 66 2.0 3.0 0.01 0.01 0.01 76 1015.2
20260503222006 49 75 0.0 2.0 0.01 0.01 0.01 76 1015.2
20260503221502 49 84 0.0 2.0 0.01 0.01 0.01 76 1015.2
20260503221003 49 106 0.0 2.0 0.01 0.01 0.01 75 1015.4
20260503220504 49 311 0.0 4.0 0.00 0.00 0.00 73 1015.6
20260503220008 50 312 2.0 7.0 0.00 0.00 0.00 73 1015.8
20260503215505 50 269 3.0 13.0 0.00 0.00 0.00 70 1015.8
20260503215004 51 234 5.0 17.0 0.00 0.00 0.00 70 1016.0
20260503214511 51 251 11.0 21.0 0.00 0.00 0.00 66 1016.1
20260503214004 52 262 13.0 21.0 0.00 0.00 0.00 63 1016.0
20260503213506 52 233 13.0 20.0 0.00 0.00 0.00 61 1015.9
20260503213011 53 255 13.0 21.0 0.00 0.00 0.00 57 1015.9
20260503212505 54 258 12.0 21.0 0.00 0.00 0.00 55 1015.8
20260503212009 55 249 7.0 20.0 0.00 0.00 0.00 51 1015.6
20260503211519 56 267 11.0 20.0 0.00 0.00 0.00 49 1015.6
20260503211008 57 231 10.0 23.0 0.00 0.00 0.00 44 1015.6
20260503210510 57 252 15.0 23.0 0.00 0.00 0.00 43 1015.4
20260503210021 58 224 13.0 21.0 0.00 0.00 0.00 40 1015.1
20260503205504 58 293 10.0 14.0 0.00 0.00 0.00 41 1015.2
20260503205004 58 240 8.0 15.0 0.00 0.00 0.00 39 1015.2
20260503204515 59 249 9.0 15.0 0.00 0.00 0.00 39 1015.2
20260503204005 59 239 7.0 18.0 0.00 0.00 0.00 40 1015.3
20260503203505 59 221 9.0 18.0 0.00 0.00 0.00 40 1015.4
20260503203009 59 207 9.0 19.0 0.00 0.00 0.00 40 1015.4
20260503202505 59 221 11.0 19.0 0.00 0.00 0.00 37 1015.5